| time (UTC) | temp F | wind direction | speed MPH | gust MPH | rain 1hr in | rain 24hr in | rain mn in | humidity % | barometer mb |
| 20260905222451 | 75 | 111 | 2.0 | 4.0 | 0.00 | 0.00 | 0.00 | 93 | 680.1 |
| 20260905221513 | 75 | 158 | 3.0 | 6.0 | 0.00 | 0.00 | 0.00 | 93 | 680.1 |
| 20260905220551 | 76 | 129 | 3.0 | 4.0 | 0.00 | 0.00 | 0.00 | 91 | 680.1 |
| 20260905215456 | 77 | 109 | 2.0 | 4.0 | 0.00 | 0.00 | 0.00 | 91 | 680.1 |
| 20260905214511 | 77 | 148 | 3.0 | 5.0 | 0.00 | 0.00 | 0.00 | 93 | 680.1 |
| 20260905213507 | 77 | 141 | 5.0 | 9.0 | 0.00 | 0.00 | 0.00 | 94 | 680.1 |
| 20260905212452 | 77 | 149 | 3.0 | 4.0 | 0.00 | 0.00 | 0.00 | 96 | 680.1 |
| 20260905211456 | 77 | 154 | 3.0 | 4.0 | 0.00 | 0.00 | 0.00 | 99 | 680.2 |
| 20260905210452 | 77 | 121 | 2.0 | 6.0 | 0.00 | 0.00 | 0.00 | 99 | 680.1 |
| 20260905205556 | 77 | 163 | 4.0 | 6.0 | 0.00 | 0.00 | 0.00 | 99 | 680.1 |
| 20260905204552 | 77 | 157 | 3.0 | 5.0 | 0.00 | 0.00 | 0.00 | 99 | 680.1 |
| 20260905203455 | 77 | 157 | 3.0 | 4.0 | 0.00 | 0.00 | 0.00 | 98 | 680.2 |
| 20260905202538 | 76 | 174 | 4.0 | 6.0 | 0.00 | 0.00 | 0.00 | 98 | 680.1 |
| 20260905201637 | 76 | 192 | 1.0 | 2.0 | 0.00 | 0.00 | 0.00 | 91 | 680.1 |
| 20260905200515 | 77 | 178 | 3.0 | 4.0 | 0.00 | 0.00 | 0.00 | 90 | 680.1 |
| 20260905195438 | 77 | 185 | 3.0 | 4.0 | 0.00 | 0.00 | 0.00 | 91 | 680.2 |
| 20260905194514 | 77 | 225 | 5.0 | 8.0 | 0.00 | 0.00 | 0.00 | 90 | 680.1 |
| 20260905193439 | 77 | 212 | 3.0 | 6.0 | 0.00 | 0.00 | 0.00 | 91 | 680.1 |
| 20260905192453 | 76 | 211 | 3.0 | 4.0 | 0.00 | 0.00 | 0.00 | 91 | 680.1 |
| 20260905191759 | 77 | 210 | 3.0 | 5.0 | 0.00 | 0.00 | 0.00 | 91 | 680.2 |
| 20260905190539 | 77 | 198 | 2.0 | 5.0 | 0.00 | 0.00 | 0.00 | 91 | 680.2 |
| 20260905185509 | 76 | 215 | 5.0 | 8.0 | 0.00 | 0.00 | 0.00 | 89 | 680.1 |
| 20260905184516 | 76 | 213 | 4.0 | 6.0 | 0.00 | 0.00 | 0.00 | 91 | 680.1 |
| 20260905183509 | 77 | 175 | 2.0 | 4.0 | 0.00 | 0.00 | 0.00 | 92 | 680.2 |
| 20260905182515 | 77 | 164 | 2.0 | 4.0 | 0.00 | 0.00 | 0.00 | 91 | 680.2 |
| 20260905181454 | 77 | 208 | 2.0 | 4.0 | 0.00 | 0.00 | 0.00 | 91 | 680.1 |
| 20260905180440 | 76 | 226 | 2.0 | 4.0 | 0.00 | 0.00 | 0.00 | 91 | 680.2 |
| 20260905175555 | 76 | 201 | 2.0 | 6.0 | 0.00 | 0.00 | 0.00 | 93 | 680.1 |
| 20260905174529 | 77 | 244 | 3.0 | 3.0 | 0.00 | 0.00 | 0.00 | 91 | 680.2 |
| 20260905173523 | 77 | 284 | 4.0 | 6.0 | 0.00 | 0.00 | 0.00 | 91 | 680.2 |
| 20260905172455 | 77 | 197 | 2.0 | 2.0 | 0.00 | 0.00 | 0.00 | 93 | 680.2 |
| 20260905171441 | 77 | 0.0 | 0.0 | 0.00 | 0.00 | 0.00 | 92 | 680.1 | |
| 20260905170456 | 77 | 264 | 3.0 | 4.0 | 0.00 | 0.00 | 0.00 | 91 | 680.2 |
| 20260905165455 | 77 | 215 | 2.0 | 5.0 | 0.00 | 0.00 | 0.00 | 91 | 680.2 |
| 20260905164545 | 78 | 214 | 5.0 | 9.0 | 0.00 | 0.00 | 0.00 | 92 | 680.2 |
| 20260905163441 | 78 | 227 | 3.0 | 4.0 | 0.00 | 0.00 | 0.00 | 92 | 680.2 |
| 20260905162456 | 78 | 224 | 4.0 | 7.0 | 0.00 | 0.00 | 0.00 | 91 | 680.2 |
| 20260905161632 | 78 | 278 | 4.0 | 7.0 | 0.00 | 0.00 | 0.00 | 92 | 680.2 |
| 20260905160511 | 78 | 227 | 4.0 | 5.0 | 0.00 | 0.00 | 0.00 | 90 | 680.2 |
| 20260905155656 | 79 | 247 | 4.0 | 7.0 | 0.00 | 0.00 | 0.00 | 91 | 680.2 |
| 20260905154456 | 78 | 209 | 4.0 | 7.0 | 0.00 | 0.00 | 0.00 | 94 | 680.2 |
| 20260905153456 | 77 | 237 | 4.0 | 7.0 | 0.00 | 0.00 | 0.00 | 94 | 680.1 |
| 20260905152557 | 76 | 248 | 4.0 | 6.0 | 0.00 | 0.00 | 0.00 | 92 | 680.1 |
| 20260905151540 | 76 | 230 | 3.0 | 8.0 | 0.00 | 0.00 | 0.00 | 94 | 680.1 |
| 20260905150457 | 75 | 255 | 3.0 | 5.0 | 0.00 | 0.00 | 0.00 | 97 | 680.1 |
| 20260905145442 | 74 | 269 | 3.0 | 7.0 | 0.00 | 0.00 | 0.00 | 99 | 680.1 |
| 20260905144442 | 73 | 0.0 | 0.0 | 0.00 | 0.00 | 0.00 | 98 | 680.0 | |
| 20260905143558 | 71 | 260 | 3.0 | 6.0 | 0.00 | 0.00 | 0.00 | 99 | 680.0 |
| 20260905142457 | 70 | 234 | 3.0 | 6.0 | 0.00 | 0.00 | 0.00 | 99 | 679.9 |
| 20260905141520 | 69 | 266 | 2.0 | 4.0 | 0.00 | 0.00 | 0.00 | 99 | 679.9 |
| 20260905140520 | 67 | 261 | 3.0 | 4.0 | 0.00 | 0.00 | 0.00 | 99 | 679.9 |
| 20260905135458 | 67 | 246 | 3.0 | 5.0 | 0.00 | 0.00 | 0.00 | 99 | 679.9 |
| 20260905134527 | 66 | 284 | 3.0 | 6.0 | 0.00 | 0.00 | 0.00 | 99 | 679.9 |
| 20260905133513 | 65 | 275 | 3.0 | 7.0 | 0.00 | 0.00 | 0.00 | 99 | 679.9 |
| 20260905132443 | 65 | 301 | 2.0 | 6.0 | 0.00 | 0.00 | 0.00 | 99 | 679.8 |
| 20260905131541 | 64 | 267 | 3.0 | 5.0 | 0.00 | 0.00 | 0.00 | 99 | 679.8 |
| 20260905130521 | 64 | 245 | 2.0 | 4.0 | 0.00 | 0.00 | 0.00 | 99 | 679.8 |
| 20260905125459 | 63 | 232 | 2.0 | 3.0 | 0.00 | 0.00 | 0.00 | 99 | 679.8 |
| 20260905124444 | 63 | 249 | 2.0 | 4.0 | 0.00 | 0.00 | 0.00 | 99 | 679.8 |
| 20260905123522 | 62 | 240 | 2.0 | 5.0 | 0.00 | 0.00 | 0.00 | 99 | 679.8 |
| 20260905122459 | 62 | 264 | 2.0 | 3.0 | 0.00 | 0.00 | 0.00 | 99 | 679.8 |
| 20260905121444 | 61 | 253 | 2.0 | 4.0 | 0.00 | 0.00 | 0.00 | 99 | 679.8 |
| 20260905120502 | 0 | 0.0 | 0.0 | 0.00 | 0.00 | 0.00 | |||
| 20260905115500 | 61 | 252 | 1.0 | 3.0 | 0.00 | 0.00 | 0.00 | 99 | 679.7 |
| 20260905114523 | 60 | 267 | 1.0 | 2.0 | 0.00 | 0.00 | 0.00 | 99 | 679.7 |
| 20260905113500 | 60 | 245 | 1.0 | 1.0 | 0.00 | 0.00 | 0.00 | 99 | 679.7 |
| 20260905112543 | 60 | 253 | 1.0 | 2.0 | 0.00 | 0.00 | 0.00 | 99 | 679.7 |
| 20260905111500 | 60 | 218 | 0.0 | 1.0 | 0.00 | 0.00 | 0.00 | 99 | 679.7 |
| 20260905110500 | 60 | 252 | 0.0 | 1.0 | 0.00 | 0.00 | 0.00 | 99 | 679.8 |
| 20260905105523 | 61 | 0.0 | 0.0 | 0.00 | 0.00 | 0.00 | 99 | 679.8 | |
| 20260905104523 | 61 | 304 | 0.0 | 1.0 | 0.00 | 0.00 | 0.00 | 99 | 679.8 |
| 20260905103524 | 61 | 269 | 1.0 | 3.0 | 0.00 | 0.00 | 0.00 | 99 | 679.8 |
| 20260905102524 | 61 | 267 | 2.0 | 3.0 | 0.00 | 0.00 | 0.00 | 99 | 679.8 |
| 20260905101531 | 62 | 264 | 2.0 | 4.0 | 0.00 | 0.00 | 0.00 | 99 | 679.8 |
| 20260905100446 | 62 | 271 | 2.0 | 4.0 | 0.00 | 0.00 | 0.00 | 99 | 679.8 |
| 20260905095516 | 62 | 245 | 2.0 | 4.0 | 0.00 | 0.00 | 0.00 | 99 | 679.8 |
| 20260905094446 | 62 | 0.0 | 0.0 | 0.00 | 0.00 | 0.00 | 99 | 679.8 | |
| 20260905093501 | 63 | 269 | 2.0 | 3.0 | 0.00 | 0.00 | 0.00 | 99 | 679.8 |
| 20260905092446 | 63 | 265 | 2.0 | 4.0 | 0.00 | 0.00 | 0.00 | 99 | 679.8 |
| 20260905091547 | 63 | 253 | 1.0 | 3.0 | 0.00 | 0.00 | 0.00 | 99 | 679.8 |
| 20260905090517 | 63 | 243 | 1.0 | 2.0 | 0.00 | 0.00 | 0.00 | 99 | 679.8 |
| 20260905085447 | 63 | 256 | 1.0 | 2.0 | 0.00 | 0.00 | 0.00 | 99 | 679.8 |
| 20260905084502 | 63 | 278 | 1.0 | 3.0 | 0.00 | 0.00 | 0.00 | 99 | 679.8 |
| 20260905083600 | 64 | 270 | 2.0 | 4.0 | 0.00 | 0.00 | 0.00 | 99 | 679.8 |
| 20260905082522 | 64 | 265 | 2.0 | 3.0 | 0.00 | 0.00 | 0.00 | 99 | 679.8 |
| 20260905081502 | 64 | 270 | 2.0 | 3.0 | 0.00 | 0.00 | 0.00 | 99 | 679.8 |
| 20260905080502 | 64 | 249 | 1.0 | 3.0 | 0.00 | 0.00 | 0.00 | 99 | 679.8 |
| 20260905075503 | 64 | 249 | 1.0 | 2.0 | 0.00 | 0.00 | 0.00 | 99 | 679.8 |
| 20260905074509 | 64 | 0.0 | 0.0 | 0.00 | 0.00 | 0.00 | 99 | 679.8 | |
| 20260905073546 | 64 | 273 | 1.0 | 3.0 | 0.00 | 0.00 | 0.00 | 99 | 679.8 |
| 20260905072518 | 64 | 260 | 1.0 | 3.0 | 0.00 | 0.00 | 0.00 | 99 | 679.8 |
| 20260905071503 | 64 | 229 | 1.0 | 2.0 | 0.00 | 0.00 | 0.00 | 99 | 679.8 |
| 20260905070449 | 64 | 0.0 | 0.0 | 0.00 | 0.00 | 0.00 | 99 | 679.8 | |
| 20260905065504 | 64 | 269 | 1.0 | 1.0 | 0.00 | 0.00 | 0.00 | 99 | 679.8 |
| 20260905064503 | 64 | 270 | 0.0 | 2.0 | 0.00 | 0.00 | 0.00 | 99 | 679.8 |
| 20260905063549 | 64 | 267 | 1.0 | 2.0 | 0.00 | 0.00 | 0.00 | 99 | 679.8 |
| 20260905062509 | 64 | 273 | 1.0 | 2.0 | 0.00 | 0.00 | 0.00 | 99 | 679.8 |
| 20260905061504 | 64 | 263 | 2.0 | 4.0 | 0.00 | 0.00 | 0.00 | 99 | 679.8 |
| 20260905060605 | 65 | 261 | 2.0 | 3.0 | 0.00 | 0.00 | 0.00 | 99 | 679.8 |
| 20260905055549 | 65 | 272 | 3.0 | 4.0 | 0.00 | 0.00 | 0.00 | 99 | 679.8 |
| 20260905054450 | 65 | 224 | 1.0 | 2.0 | 0.00 | 0.00 | 0.00 | 99 | 679.8 |
| 20260905053504 | 65 | 253 | 1.0 | 2.0 | 0.00 | 0.00 | 0.00 | 99 | 679.8 |
| 20260905052505 | 65 | 245 | 1.0 | 2.0 | 0.00 | 0.00 | 0.00 | 99 | 679.9 |
| 20260905051504 | 65 | 270 | 1.0 | 2.0 | 0.00 | 0.00 | 0.00 | 99 | 679.9 |
| 20260905050506 | 66 | 269 | 1.0 | 2.0 | 0.00 | 0.00 | 0.00 | 99 | 679.9 |
| 20260905045510 | 66 | 241 | 1.0 | 2.0 | 0.00 | 0.00 | 0.00 | 99 | 679.9 |
| 20260905044520 | 66 | 266 | 2.0 | 4.0 | 0.00 | 0.00 | 0.00 | 99 | 679.9 |
| 20260905043541 | 67 | 272 | 1.0 | 2.0 | 0.00 | 0.00 | 0.00 | 99 | 679.9 |
| 20260905042450 | 67 | 267 | 2.0 | 3.0 | 0.00 | 0.00 | 0.00 | 99 | 679.9 |
| 20260905041527 | 67 | 222 | 2.0 | 4.0 | 0.00 | 0.00 | 0.00 | 99 | 679.9 |
| 20260905040506 | 67 | 220 | 3.0 | 4.0 | 0.00 | 0.00 | 0.00 | 99 | 679.9 |
| 20260905035521 | 68 | 0.0 | 0.0 | 0.00 | 0.00 | 0.00 | 99 | 679.9 | |
| 20260905034521 | 68 | 213 | 1.0 | 2.0 | 0.00 | 0.00 | 0.00 | 99 | 679.9 |
| 20260905033527 | 68 | 242 | 2.0 | 3.0 | 0.00 | 0.00 | 0.00 | 99 | 679.9 |
| 20260905032521 | 68 | 216 | 2.0 | 3.0 | 0.00 | 0.00 | 0.00 | 99 | 679.9 |
| 20260905031521 | 68 | 241 | 0.0 | 2.0 | 0.00 | 0.00 | 0.00 | 99 | 679.9 |
| 20260905030507 | 68 | 187 | 1.0 | 1.0 | 0.00 | 0.00 | 0.00 | 99 | 679.9 |
| 20260905025529 | 68 | 0.0 | 0.0 | 0.00 | 0.00 | 0.00 | 99 | 679.9 | |
| 20260905024521 | 68 | 151 | 0.0 | 1.0 | 0.00 | 0.00 | 0.00 | 99 | 679.9 |
| 20260905023545 | 68 | 139 | 0.0 | 2.0 | 0.00 | 0.00 | 0.00 | 99 | 679.9 |
| 20260905022522 | 68 | 197 | 1.0 | 2.0 | 0.00 | 0.00 | 0.00 | 99 | 679.9 |
| 20260905021508 | 68 | 215 | 1.0 | 1.0 | 0.00 | 0.00 | 0.00 | 99 | 679.9 |
| 20260905020509 | 68 | 220 | 0.0 | 1.0 | 0.00 | 0.00 | 0.00 | 99 | 679.9 |
| 20260905015543 | 68 | 239 | 0.0 | 2.0 | 0.00 | 0.00 | 0.00 | 99 | 679.9 |
| 20260905014453 | 68 | 217 | 2.0 | 3.0 | 0.00 | 0.00 | 0.00 | 99 | 679.9 |
| 20260905013508 | 68 | 215 | 2.0 | 3.0 | 0.00 | 0.00 | 0.00 | 99 | 679.9 |
| 20260905012507 | 68 | 0.0 | 0.0 | 0.00 | 0.00 | 0.00 | 99 | 679.9 | |
| 20260905011509 | 68 | 0.0 | 0.0 | 0.00 | 0.00 | 0.00 | 99 | 679.9 | |
| 20260905010509 | 69 | 0 | 0.0 | 0.0 | 0.00 | 0.00 | 0.00 | 99 | 679.9 |
| 20260905005603 | 69 | 0.0 | 0.0 | 0.00 | 0.00 | 0.00 | 99 | 679.9 | |
| 20260905004453 | 69 | 0.0 | 0.0 | 0.00 | 0.00 | 0.00 | 99 | 680.0 | |
| 20260905003530 | 0 | 0.0 | 0.0 | 0.00 | 0.00 | 0.00 | |||
| 20260905002509 | 70 | 222 | 0.0 | 2.0 | 0.00 | 0.00 | 0.00 | 99 | 680.0 |
| 20260905001514 | 70 | 230 | 1.0 | 2.0 | 0.00 | 0.00 | 0.00 | 99 | 680.0 |
| 20260905000530 | 70 | 304 | 0.0 | 1.0 | 0.00 | 0.00 | 0.00 | 99 | 680.0 |
| 20260904235529 | 70 | 235 | 0.0 | 1.0 | 0.00 | 0.00 | 0.00 | 99 | 680.0 |
| 20260904234536 | 71 | 223 | 0.0 | 1.0 | 0.00 | 0.00 | 0.00 | 99 | 680.0 |
| 20260904233533 | 71 | 215 | 0.0 | 2.0 | 0.00 | 0.00 | 0.00 | 99 | 680.0 |
| 20260904232454 | 71 | 258 | 1.0 | 1.0 | 0.00 | 0.00 | 0.00 | 99 | 680.0 |
| 20260904231510 | 71 | 296 | 0.0 | 3.0 | 0.00 | 0.00 | 0.00 | 99 | 680.0 |
| 20260904230510 | 71 | 240 | 1.0 | 2.0 | 0.00 | 0.00 | 0.00 | 99 | 680.0 |
| 20260904225511 | 71 | 0.0 | 0.0 | 0.00 | 0.00 | 0.00 | 99 | 680.0 | |
| 20260904224455 | 71 | 218 | 1.0 | 1.0 | 0.00 | 0.01 | 0.00 | 99 | 680.0 |
| 20260904223539 | 72 | 281 | 1.0 | 2.0 | 0.00 | 0.01 | 0.00 | 99 | 680.0 |